Temp_Advection
nan nan nan nan nan nan nan nan nan nan nan nan nan nan nan nan nan nan nan nan nan nan nan nan nan nan nan nan nan nan nan nan nan nan nan nan nan nan nan nan nan nan nan
nan 0 0 -0 -0 -0 -0 -0 -0 -0 -0 -0 -0 -0 -0 -0 -0 -0 -0 -0 -0 -0 0 -0 -0 -0 -0 -0 -0 -0 -0 0 0 0 0 0 -0 -0 -0 -0 -0 -0 nan
nan -0 0 0 -0 -0 -0 -0 -0 -0 -0 -0 -0 -0 -0 -0 -0 -0 -0 -0 -0 -0 -0 0 -0 -0 0 -0 -0 -0 -0 -0 -0 -0 0 0 0 0 0 -0 -0 -0 nan
nan 0 0 -0 0 -0 -0 -0 -0 -0 -0 -0 -0 -0 -0 0 0 0 0 0 0 0 0 0 0 -0 -0 -0 -0 -0 -0 -0 -0 -0 -0 0 0 -0 0 -0 -0 -0 nan
nan 0 0 0 -0 -0 -0 -0 -0 -0 -0 0 0 0 0 0 0 0 0 0 0 0 0 0 0 0 -0 -0 -0 -0 -0 -0 -0 -0 -0 0 0 -0 -0 -0 -0 -0 nan
nan 0 0 0 -0 -0 -0 0 -0 0 0 0 0 0 0 0 0 0 0 0 0 0 0 0 0 0 0 0 0 -0 -0 -0 -0 -0 -0 -0 0 0 -0 -0 -0 -0 nan
nan 0 0 0 0 -0 -0 -0 0 0 0 0 0 0 0 0 0 0 -0 -0 -0 -0 -0 -0 0 0 0 0 0 0 0 0 0 -0 -0 -0 0 0 0 -0 -0 -0 nan
nan 0 0 0 0 0 0 0 0 0 0 0 0 0 0 0 0 0 0 -0 -0 -0 -0 -0 -0 -0 -0 0 0 0 0 0 0 0 0 0 0 -0 -0 -0 0 0 nan
nan -0 0 0 0 0 0 0 0 0 0 0 0 -0 -0 -0 0 -0 -0 0 -0 -0 -0 0 0 -0 -0 0 -0 0 -0 -0 -0 -0 0 0 0 0 -0 -0 0 0 nan
nan -0 -0 -0 -0 -0 0 0 0 0 0 0 0 0 -0 -0 -0 -0 -0 -0 -0 -0 -0 -0 -0 -0 -0 -0 -0 -0 -0 0 0 -0 -0 0 0 -0 0 0 0 -0 nan
nan 0 -0 0 0 0 -0 -0 0 0 -0 0 -0 -0 -0 -0 -0 -0 -0 -0 -0 -0 -0 -0 -0 -0 -0 -0 -0 -0 -0 -0 -0 0 0 -0 -0 -0 -0 -0 0 0 nan
nan 0 0 0 0 -0 -0 -0 -0 -0 -0 -0 -0 -0 -0 -0 -0 0 -0 -0 -0 -0 -0 -0 -0 -0 -0 -0 -0 -0 -0 -0 -0 -0 -0 -0 -0 0 0 -0 -0 -0 nan
nan 0 0 -0 -0 -0 -0 -0 -0 -0 -0 -0 -0 -0 -0 -0 -0 -0 -0 -0 -0 -0 -0 -0 0 0 0 0 0 -0 -0 -0 -0 -0 -0 -0 -0 -0 -0 -0 -0 -0 nan
nan 0 0 -0 -0 -0 -0 0 -0 -0 -0 -0 -0 -0 -0 -0 -0 -0 -0 -0 -0 -0 -0 -0 -0 -0 -0 0 0 0 -0 -0 -0 -0 -0 -0 -0 -0 -0 -0 -0 -0 nan
nan 0 -0 -0 -0 -0 0 0 -0 -0 -0 -0 -0 -0 -0 -0 -0 -0 -0 -0 -0 -0 -0 -0 -0 -0 -0 0 0 0 -0 -0 -0 -0 -0 -0 -0 -0 -0 -0 -0 -0 nan
nan -0 -0 -0 -0 -0 0 0 0 -0 -0 -0 -0 -0 -0 -0 -0 -0 -0 -0 -0 -0 -0 -0 -0 -0 0 0 0 0 0 -0 -0 -0 -0 -0 -0 -0 -0 -0 -0 -0 nan
nan -0 -0 -0 -0 -0 0 0 0 -0 -0 -0 -0 -0 -0 -0 -0 -0 -0 -1 -0 -0 -0 -0 -0 -0 -0 0 0 0 0 0 0 -0 -0 -0 -0 0 0 -0 -0 -0 nan
nan -0 0 -0 -0 -0 0 0 0 -0 -0 -0 -0 -0 -0 -0 -0 -0 -0 -0 -0 -0 -0 -0 -0 -0 0 0 0 0 0 0 0 0 0 0 -0 0 0 -0 -0 -0 nan
nan 0 0 -0 -0 0 0 0 0 -0 -0 -0 -0 -0 -0 -0 -0 -0 -0 -0 -0 -0 -0 -0 -0 -0 -0 -0 0 0 0 0 -0 0 -0 -0 -0 -0 -0 -0 -0 -1 nan
nan -0 -0 -0 -0 -0 0 0 0 0 0 -0 -0 0 -0 -0 -0 -0 -0 -0 -0 -0 -0 -0 -0 -0 -0 -1 -0 -0 -0 -0 -0 -0 0 -0 -0 -0 -0 -0 -0 -1 nan
nan -0 -0 -0 0 0 0 0 0 0 0 -0 -0 0 0 -0 -0 -0 0 -0 -0 -0 -0 -0 -0 -0 -0 -1 -1 -0 -0 -0 -0 -0 -0 -0 -0 -0 -0 0 0 -0 nan
nan -0 -0 0 0 0 0 0 0 0 -0 -0 -0 -0 -0 -0 -0 0 0 0 0 -0 0 0 -0 -1 -0 -1 -1 -1 -0 -0 0 0 0 0 0 -0 0 0 0 0 nan
nan 0 1 1 1 0 0 0 0 0 -0 -0 -0 -0 -0 -0 -0 -0 0 0 0 0 0 0 0 -0 -0 0 -0 -0 -0 -0 -1 0 0 0 0 -0 -0 -0 0 0 nan
nan 1 1 1 1 0 0 0 -0 -0 0 0 -0 -0 0 -0 -0 -0 0 0 0 0 -0 0 0 -0 -0 0 0 0 0 -0 -0 -1 0 0 0 0 0 -0 -0 0 nan
nan 0 0 0 0 0 -0 -0 0 0 0 -0 -0 -0 -0 0 -0 -0 -0 -0 0 0 0 -0 0 0 -0 -0 0 0 1 0 0 -0 -1 -1 -0 0 0 0 0 0 nan
nan nan nan nan nan nan nan nan nan nan nan nan nan nan nan nan nan nan nan nan nan nan nan nan nan nan nan nan nan nan nan nan nan nan nan nan nan nan nan nan nan nan nan
Wind_Speed
13 12 10 9 8 9 9 9 10 10 11 10 10 9 9 9 8 8 9 9 8 7 6 6 7 8 8 9 8 7 5 5 5 5 5 5 5 6 7 4 6 5 5
12 14 11 9 9 8 8 8 8 9 8 8 8 7 7 7 7 8 8 8 8 8 8 7 7 8 8 8 8 8 8 7 7 6 5 5 4 5 7 9 6 6 5
12 14 12 10 9 8 7 7 7 7 7 7 6 6 7 8 8 8 7 8 9 9 8 9 9 9 10 10 10 9 9 8 8 7 6 5 5 6 7 9 9 7 5
14 14 12 10 8 7 6 6 5 6 6 6 6 6 5 6 7 8 9 9 10 10 9 10 10 11 12 11 11 12 11 11 10 9 7 6 8 7 9 11 10 9 8
11 13 11 9 7 6 5 5 4 4 4 5 5 6 7 7 8 9 9 10 10 11 11 11 12 12 12 13 14 13 13 13 13 11 10 7 6 9 13 16 13 12 11
12 10 9 8 7 7 5 4 3 4 5 6 6 7 8 9 9 10 10 11 11 12 12 12 12 13 14 15 15 15 15 15 16 14 12 10 10 10 16 18 13 14 14
11 9 8 8 7 4 3 2 3 5 5 6 7 8 8 9 10 11 11 12 13 13 14 15 15 15 16 16 17 17 17 17 18 17 15 13 12 11 14 20 18 17 16
11 9 10 8 6 3 2 2 3 5 6 7 8 8 9 10 10 11 12 13 14 15 16 16 17 17 18 18 18 18 19 19 20 20 19 18 16 12 16 21 21 19 18
11 9 11 7 5 2 1 2 4 5 6 7 8 9 10 11 12 13 13 14 15 14 15 15 16 16 16 17 18 18 19 20 22 22 21 19 16 15 17 22 23 21 19
12 9 12 8 5 3 0 3 5 6 7 8 9 9 10 12 14 14 16 15 14 14 13 14 14 14 14 14 13 14 16 17 17 17 18 17 12 14 17 20 22 22 19
14 10 9 7 5 1 2 4 5 7 8 9 9 10 11 12 14 14 15 15 15 16 16 15 16 15 14 13 13 14 14 15 14 12 9 10 13 16 18 21 20 19 18
17 12 9 6 3 3 4 5 6 8 9 10 11 11 12 12 14 14 15 16 17 17 17 18 17 16 15 15 14 12 13 14 15 16 16 16 16 11 16 20 23 26 24
16 14 10 7 5 4 4 6 7 8 9 10 11 11 11 12 13 13 14 15 16 16 16 16 16 15 14 15 14 13 12 13 14 13 12 16 17 15 16 20 24 26 25
16 13 11 8 6 5 5 6 8 8 10 10 11 11 11 10 12 14 15 16 17 17 17 17 16 15 15 13 11 10 10 13 14 14 12 13 15 17 18 21 23 25 24
15 14 11 9 7 6 6 6 7 8 8 11 11 10 10 12 13 15 16 17 17 17 17 17 16 17 16 14 11 9 10 10 12 12 11 11 14 17 19 20 20 18 17
16 13 11 9 8 7 6 7 7 9 10 12 10 9 11 12 14 16 19 20 19 18 18 17 17 18 18 15 13 10 11 11 11 12 13 10 10 12 14 17 12 11 12
16 13 11 10 9 8 7 8 8 8 9 10 9 10 10 10 14 18 21 21 20 18 18 17 17 18 18 15 14 12 11 10 8 9 9 11 12 12 8 10 10 9 9
14 13 12 11 9 9 9 9 8 8 11 10 10 9 8 11 15 18 21 22 20 19 19 19 19 19 20 18 16 13 11 7 7 10 8 9 7 9 9 13 11 11 9
13 13 12 10 10 10 10 9 9 9 11 10 10 9 8 11 15 19 21 21 20 19 19 20 20 21 22 20 18 13 7 5 7 2 5 7 6 7 8 10 11 14 10
15 14 13 12 11 12 12 11 10 10 10 10 10 10 10 13 16 19 21 20 20 19 18 18 20 20 22 22 18 13 5 4 5 5 6 5 8 11 14 11 13 18 11
15 16 14 13 13 14 12 10 12 11 9 10 11 11 11 14 16 19 21 19 19 18 17 18 20 20 22 23 18 6 4 2 1 3 2 5 6 11 13 11 17 15 10
18 18 17 16 16 14 12 12 12 10 11 12 12 11 12 13 17 19 19 18 18 17 16 16 18 19 20 21 19 10 5 1 1 4 3 4 3 8 10 13 15 14 11
19 19 18 18 16 15 13 12 11 11 11 12 11 10 12 15 17 18 17 16 16 16 16 16 16 17 18 17 14 8 5 4 13 6 6 6 5 4 9 13 15 15 17
16 17 18 16 17 16 14 12 10 10 11 11 11 12 13 15 15 15 14 15 15 15 15 15 16 16 16 16 13 7 6 8 5 9 8 8 8 7 10 13 16 20 16
11 11 13 14 15 15 11 9 9 10 10 10 11 13 14 13 13 14 15 15 15 15 16 16 16 15 16 15 14 14 13 7 8 10 18 13 12 12 13 14 14 12 9
7 8 9 10 9 8 7 7 8 8 8 10 11 11 11 12 14 15 17 17 17 17 17 17 17 17 16 16 15 13 13 12 9 10 16 19 21 19 18 12 7 7 8
Wind_Direction
172 167 156 142 125 111 100 89 82 78 74 70 65 60 54 50 42 34 27 24 21 17 9 1 355 358 4 7 7 3 352 344 345 338 338 344 357 21 13 343 319 324 319
162 158 155 142 129 115 103 92 86 81 76 69 60 51 44 35 28 22 20 17 14 9 357 347 345 343 344 348 349 350 347 341 337 334 328 330 334 347 360 346 324 323 325
164 159 153 141 129 115 101 90 83 75 65 56 47 38 31 23 15 10 7 358 355 353 351 343 339 334 331 333 332 331 329 329 330 327 319 306 309 314 323 326 322 311 303
158 156 147 140 131 117 103 88 74 60 47 40 30 26 21 4 348 344 343 341 339 336 334 330 327 326 323 321 320 319 317 317 316 315 315 283 281 303 305 305 306 305 299
145 149 144 140 129 115 103 88 67 46 39 9 2 357 351 347 340 335 332 330 328 324 320 316 312 308 307 310 311 310 309 309 306 307 305 297 260 299 304 299 296 299 297
130 139 140 136 129 121 106 77 53 7 359 357 1 0 355 350 343 337 332 331 328 324 318 313 308 303 299 297 295 293 296 299 295 297 299 295 280 294 294 300 295 297 294
151 164 159 148 139 127 108 69 8 353 357 1 357 353 349 343 337 333 332 332 328 324 319 316 311 307 302 297 294 293 290 285 286 288 291 289 275 282 282 288 296 295 292
171 177 165 151 145 131 98 37 5 355 353 351 349 347 343 339 335 334 336 332 325 321 317 314 309 304 301 297 293 291 289 286 283 283 283 280 281 262 267 275 283 283 284
164 176 162 158 150 143 65 6 356 350 345 345 345 345 343 340 336 337 335 335 328 328 326 320 314 310 307 301 295 290 284 281 282 284 283 281 276 268 272 276 273 276 278
170 183 169 168 167 166 27 349 349 345 342 343 347 346 341 338 337 338 345 336 337 336 330 324 319 317 313 308 307 298 289 285 287 287 283 277 279 268 263 270 270 275 280
176 175 162 177 192 174 310 330 340 341 341 342 349 345 341 339 337 344 336 340 341 338 333 332 330 327 323 321 317 312 306 297 285 271 269 266 284 261 268 271 275 277 281
187 179 178 184 224 281 309 311 335 349 338 343 343 344 339 339 346 340 342 343 341 337 336 334 332 329 323 320 322 318 316 315 303 288 274 274 269 271 266 271 278 280 282
189 186 188 196 220 253 273 306 332 338 335 341 339 339 341 353 345 345 344 341 340 339 337 334 328 323 320 319 317 318 321 322 316 313 292 271 273 277 274 271 273 279 285
190 191 196 203 224 250 278 302 320 334 335 338 336 347 356 345 351 351 349 348 347 345 341 337 334 330 325 321 317 315 317 317 317 316 311 285 275 278 278 279 279 281 280
197 198 203 211 226 250 274 302 314 324 328 337 349 350 348 356 1 1 358 353 351 347 343 342 342 342 337 329 320 309 310 309 311 306 310 313 285 281 284 289 295 287 274
204 203 209 219 232 251 275 295 316 318 338 337 340 342 355 3 4 3 1 357 353 349 346 342 343 345 341 331 322 306 291 291 296 298 292 301 299 293 296 305 309 293 281
216 211 215 226 238 255 271 287 302 315 325 329 335 348 353 357 0 1 358 355 351 348 344 343 342 342 342 330 322 314 308 296 283 309 297 293 292 296 307 311 322 314 295
212 215 222 232 243 255 265 278 298 306 314 329 335 336 335 350 353 352 355 353 349 346 343 344 346 344 345 338 333 322 314 295 318 309 291 298 297 285 289 300 314 315 310
224 226 230 239 249 256 267 275 282 293 309 325 323 319 321 335 342 348 349 349 347 346 345 344 348 348 345 344 340 339 323 309 356 283 300 314 338 336 318 314 313 309 315
231 242 247 249 253 258 262 263 273 285 300 316 312 308 315 326 334 340 343 344 342 345 343 342 345 350 348 346 346 345 337 46 56 14 299 338 352 349 343 343 339 324 331
223 240 249 253 256 257 258 259 267 277 293 307 310 306 306 316 326 334 336 336 336 339 343 341 341 346 350 351 353 33 35 91 110 24 6 341 340 342 344 338 340 339 332
226 238 248 254 257 261 257 258 265 282 299 307 308 305 311 316 323 327 330 329 330 333 338 335 336 342 350 353 354 3 7 277 264 272 209 294 314 331 335 328 333 334 331
232 235 241 249 250 255 258 264 264 274 289 302 302 307 311 316 324 329 330 329 327 328 332 334 329 334 341 351 360 1 346 332 329 209 212 230 270 299 314 321 325 330 332
234 235 235 235 239 248 257 257 257 272 291 298 302 309 315 315 319 322 327 332 334 331 329 328 324 325 329 335 347 330 289 292 316 318 229 234 249 290 314 307 310 312 306
228 229 229 228 232 243 251 250 263 283 292 297 303 306 313 320 324 326 325 325 328 328 327 325 320 316 315 321 323 327 329 312 284 283 296 305 260 279 293 291 304 331 298
215 209 207 209 223 230 235 250 269 281 291 300 307 314 318 320 320 318 316 316 318 319 318 316 315 312 308 307 307 309 308 312 289 276 291 299 304 315 312 299 287 312 302
Height
1554 1556 1558 1559 1560 1560 1561 1561 1561 1560 1560 1559 1559 1559 1558 1557 1557 1556 1555 1555 1554 1553 1553 1552 1552 1551 1550 1549 1548 1548 1547 1547 1546 1545 1544 1544 1543 1543 1543 1542 1540 1540 1539
1553 1556 1558 1559 1560 1561 1561 1562 1562 1561 1561 1560 1560 1559 1559 1558 1558 1557 1555 1554 1554 1553 1553 1552 1551 1550 1550 1549 1548 1547 1547 1546 1545 1544 1544 1543 1542 1542 1542 1542 1541 1539 1538
1554 1556 1558 1559 1560 1560 1561 1561 1562 1562 1561 1561 1560 1560 1559 1559 1558 1557 1556 1555 1554 1553 1553 1552 1551 1550 1549 1549 1548 1547 1546 1545 1544 1544 1543 1542 1541 1540 1540 1540 1540 1539 1538
1554 1556 1558 1559 1560 1560 1561 1562 1562 1562 1561 1561 1561 1560 1559 1558 1558 1557 1556 1554 1553 1552 1552 1551 1550 1549 1548 1548 1547 1546 1545 1544 1543 1542 1542 1541 1540 1539 1539 1538 1538 1538 1537
1555 1556 1558 1559 1560 1561 1562 1562 1562 1562 1561 1561 1560 1560 1559 1558 1557 1556 1554 1553 1552 1551 1550 1549 1548 1548 1547 1546 1545 1544 1543 1542 1541 1541 1540 1540 1539 1537 1538 1538 1537 1536 1535
1555 1556 1558 1559 1560 1561 1562 1562 1562 1562 1561 1560 1560 1559 1558 1557 1556 1555 1554 1552 1551 1550 1548 1547 1546 1545 1544 1543 1543 1542 1541 1540 1539 1538 1538 1537 1537 1536 1536 1536 1535 1535 1534
1555 1557 1558 1559 1560 1561 1562 1562 1562 1562 1561 1560 1559 1558 1557 1556 1555 1554 1552 1551 1550 1548 1547 1546 1544 1543 1542 1541 1540 1539 1538 1537 1536 1535 1535 1534 1534 1534 1534 1532 1533 1532 1532
1556 1557 1558 1559 1561 1562 1562 1561 1561 1561 1560 1559 1558 1557 1556 1555 1554 1552 1551 1550 1548 1546 1545 1543 1542 1540 1539 1537 1536 1536 1535 1533 1532 1531 1531 1531 1531 1531 1531 1530 1529 1529 1528
1555 1556 1557 1559 1560 1561 1561 1561 1561 1560 1560 1559 1557 1556 1555 1553 1552 1551 1550 1548 1546 1544 1542 1540 1538 1536 1535 1533 1532 1531 1530 1529 1528 1527 1527 1526 1527 1527 1527 1527 1525 1525 1524
1554 1555 1557 1558 1560 1561 1561 1561 1560 1560 1559 1558 1557 1556 1554 1552 1550 1549 1547 1546 1544 1542 1540 1537 1536 1533 1531 1530 1528 1527 1525 1524 1524 1523 1522 1522 1522 1522 1522 1521 1521 1521 1520
1554 1555 1556 1557 1559 1560 1560 1560 1560 1559 1558 1557 1556 1555 1553 1551 1549 1547 1546 1544 1542 1540 1537 1535 1533 1531 1529 1527 1526 1524 1522 1521 1520 1519 1518 1518 1518 1518 1518 1517 1517 1516 1516
1552 1553 1555 1556 1558 1558 1559 1559 1559 1558 1557 1557 1555 1554 1552 1550 1548 1547 1545 1543 1540 1538 1536 1533 1530 1528 1526 1524 1522 1521 1520 1518 1517 1516 1515 1515 1514 1514 1513 1513 1513 1512 1512
1551 1552 1555 1556 1557 1558 1558 1558 1558 1558 1557 1556 1554 1553 1552 1549 1549 1547 1544 1542 1539 1536 1534 1531 1528 1526 1523 1521 1520 1518 1517 1516 1515 1514 1512 1512 1512 1511 1511 1510 1510 1509 1509
1550 1552 1554 1555 1556 1557 1557 1558 1557 1557 1556 1555 1554 1552 1550 1550 1547 1545 1543 1540 1537 1535 1532 1529 1526 1524 1521 1519 1517 1516 1515 1514 1513 1512 1511 1510 1509 1508 1507 1506 1506 1505 1505
1549 1551 1553 1554 1555 1556 1557 1557 1556 1556 1555 1554 1552 1551 1550 1548 1546 1544 1541 1539 1536 1533 1530 1527 1524 1522 1519 1517 1514 1513 1512 1511 1510 1510 1508 1507 1507 1506 1505 1503 1502 1501 1501
1547 1550 1552 1553 1554 1555 1555 1556 1555 1554 1553 1552 1551 1550 1548 1547 1545 1543 1541 1538 1535 1532 1529 1526 1523 1520 1517 1514 1512 1511 1510 1509 1508 1507 1506 1505 1505 1504 1503 1502 1500 1498 1498
1546 1549 1550 1552 1553 1553 1554 1554 1554 1553 1552 1551 1550 1549 1547 1546 1545 1542 1540 1537 1534 1531 1528 1525 1522 1520 1517 1514 1511 1509 1507 1506 1505 1505 1504 1503 1503 1502 1502 1500 1498 1497 1496
1545 1547 1548 1550 1551 1552 1552 1552 1552 1552 1551 1550 1549 1548 1547 1545 1544 1542 1539 1536 1533 1529 1526 1524 1521 1518 1515 1512 1509 1507 1506 1505 1504 1503 1502 1502 1502 1501 1500 1498 1497 1495 1494
1543 1545 1547 1548 1549 1549 1550 1550 1550 1550 1549 1548 1547 1547 1546 1545 1543 1541 1538 1535 1532 1528 1525 1522 1520 1517 1513 1510 1507 1505 1504 1504 1503 1502 1502 1501 1501 1501 1499 1498 1495 1493 1492
1542 1543 1544 1545 1546 1546 1547 1547 1547 1548 1547 1546 1546 1545 1544 1543 1542 1539 1536 1534 1531 1527 1524 1521 1519 1516 1513 1509 1506 1503 1502 1504 1504 1503 1502 1501 1500 1500 1499 1497 1494 1492 1490
1540 1541 1541 1542 1543 1543 1544 1544 1545 1546 1545 1545 1544 1543 1543 1542 1540 1538 1535 1533 1530 1526 1523 1520 1518 1516 1513 1509 1506 1504 1503 1504 1504 1504 1503 1502 1500 1500 1499 1497 1494 1491 1489
1537 1538 1537 1538 1539 1540 1541 1542 1542 1543 1543 1542 1542 1541 1540 1540 1538 1536 1533 1531 1529 1526 1523 1520 1517 1515 1513 1510 1507 1504 1504 1505 1504 1504 1503 1502 1500 1500 1499 1497 1494 1490 1487
1533 1534 1535 1535 1536 1537 1538 1539 1540 1540 1540 1540 1539 1539 1538 1537 1535 1532 1530 1529 1527 1524 1522 1519 1517 1515 1512 1511 1509 1508 1506 1505 1503 1502 1501 1500 1499 1498 1497 1496 1493 1490 1487
1530 1531 1532 1532 1534 1535 1536 1537 1538 1538 1538 1537 1537 1536 1535 1534 1533 1531 1528 1526 1524 1522 1520 1518 1516 1514 1512 1510 1510 1509 1508 1507 1505 1500 1499 1498 1498 1497 1495 1493 1491 1488 1486
1528 1529 1529 1530 1532 1533 1534 1535 1535 1535 1535 1535 1535 1534 1533 1532 1530 1529 1527 1525 1522 1520 1518 1516 1515 1513 1511 1509 1507 1506 1505 1504 1504 1503 1498 1496 1495 1495 1493 1490 1489 1487 1485
1526 1527 1527 1528 1531 1532 1533 1533 1532 1532 1533 1533 1532 1531 1530 1529 1528 1526 1524 1522 1519 1517 1515 1514 1512 1511 1509 1507 1505 1503 1502 1502 1501 1500 1499 1496 1493 1489 1488 1486 1485 1485 1484